Regional Weather Roundup
Issued by NWS Wakefield, VA

Current Version | Previous Version | Text Only | Print | Product List | Glossary On
Versions: 1 2 3 4 5 6 7 8 9 10 11 12 13 14 15 16 17 18 19 20 21 22 23 24 25 26 27 28 29 30 31 32 33 34 35 36 37 38 39 40 41 42 43 44 45 46 47 48 49 50
000
ASUS41 KAKQ 051914
RWRAKQ

REGIONAL WEATHER ROUNDUP
NATIONAL WEATHER SERVICE WAKEFIELD VA
300 PM EDT TUE MAY 05 2015

Note: "fair" indicates few or no clouds below 12,000 feet with no
significant weather and/or obstructions to visibility. * = Denotes
station may not report precipitation (e.g., rain,snow,etc.),
thunder or fog.

VAZ042-051-052>054-056-052000-
NORTHERN VIRGINIA

CITY           SKY/WX    TMP DP  RH WIND       PRES   REMARKS
WASH NATIONAL  MOSUNNY   84  61  45 S6        30.21F
DULLES         MOSUNNY   82  56  40 W3        30.21F
FORT BELVOIR   SUNNY     84  58  40 SE7       30.21F
QUANTICO       MOSUNNY   79  62  56 S5        30.22F
FREDERICKSBRG* MOSUNNY   88  56  34 CALM      30.20F
STAFFORD*      SUNNY     84  51  31 W3        30.25F
WARRENTON      SUNNY     87  58  36 CALM      30.21F
CULPEPER*      MOSUNNY   83  56  39 SE5       30.21F
MANASSAS*      NOT AVBL
LEESBURG*      CLOUDY    84  61  45 NE6       30.23S
WINCHESTER     PTSUNNY   82  45  26 SE6       30.22F
FRONT ROYAL*   FAIR      81  55  41 N5        30.21F
LURAY*         LGT RAIN  77  61  57 NW16G22   30.25R
$$

VAZ048-049-060>072-079>083-052000-
CENTRAL AND SOUTH CENTRAL VIRGINIA

CITY           SKY/WX    TMP DP  RH WIND       PRES   REMARKS
RICHMOND       MOSUNNY   83  57  41 S9        30.23F
CHESTERFIELD*  FAIR      82  55  39 S6        30.25F
PETERSBURG*    SUNNY     84  54  35 S9        30.25F
HANOVER        SUNNY     83  58  42 CALM      30.24F
TAPPAHANNOCK*  SUNNY     83  53  34 S3        30.24F
QUINTON*       FAIR      82  59  46 S6        30.23F
CHARLOTTSVILLE MOSUNNY   85  55  35 S9        30.21F
GORDONSVILLE*  FAIR      84  56  37 SW6       30.20F
ORANGE*        SUNNY     84  55  37 CALM      30.23F
LOUISA*        SUNNY     86  55  35 SE3       30.21F
BUMPASS*       FAIR      84  59  42 SE3       30.22F
FARMVILLE*     SUNNY     88  52  28 E3        30.22F
CREWE*         FAIR      83  58  42 SE3       30.24F
FORT PICKETT*  FAIR      82  59  46 SW8       30.25F
CHASE CITY*    FAIR      85  62  46 S7        30.26F
CLARKSVILLE*   FAIR      81  61  50 SW8       30.25F
SOUTH HILL*    SUNNY     80  58  46 S6G17     30.32F
LAWRENCEVILLE* FAIR      82  59  45 S7        30.26F
EMPORIA*       SUNNY     81  55  41 SE10      30.28S
$$

VAZ088>098-052000-
SOUTHEAST VIRGINIA

CITY           SKY/WX    TMP DP  RH WIND       PRES   REMARKS
NORFOLK        SUNNY     82  52  35 SW14      30.25F
VIRGINIA BEACH MOSUNNY   84  53  34 SW14      30.26F
NORFOLK NAVAL  MOSUNNY   86  54  33 SW14      30.27F
WEST POINT*    SUNNY     86  51  29 SW6       30.25F
SALUDA*        FAIR      82  59  45 SW8       30.23F
NEWPORT NEWS   SUNNY     85  57  38 SW13      30.25F
LANGLEY AFB    SUNNY     81  57  44 S16       30.24F
FORT EUSTIS    SUNNY     81  58  46 S10       30.23F
WILLIAMSBURG*  SUNNY     88  59  37 S9        30.25F
HR EXEC AP*    FAIR      82  57  42 SW7       30.27F
FRANKLIN*      SUNNY     81  56  42 S9G16     30.27F
WAKEFIELD      SUNNY     82  57  42 S8G16     30.25F
$$

VAZ020-022-025-037-045-052000-
WEST CENTRAL AND SOUTHWEST VIRGINIA

CITY           SKY/WX    TMP DP  RH WIND       PRES   REMARKS
STAUNTON*      RAIN      73  57  57 NW14G25   30.27R
WAYNESBORO*    FAIR      82  47  29 SW6       30.25F
HOT SPRINGS VA CLOUDY    70  45  41 W6        30.36F
LYNCHBURG      MOSUNNY   84  50  30 SW7       30.25F
DANVILLE       SUNNY     84  57  39 VRB6      30.25F
SOUTH BOSTON*  FAIR      83  58  42 S7        30.25F
MARTINSVILLE   PTSUNNY   85  53  32 S3        30.28S
ROANOKE        MOSUNNY   84  48  28 SW9G18    30.26F
BLACKSBURG     MOSUNNY   79  47  32 W3        30.32F
DUBLIN*        MOSUNNY   80  49  33 W5        30.31F
MARION*        CLOUDY    77  49  36 CALM      30.35F
HILLSVILLE*    MOSUNNY   78  48  35 SW7       30.32F
RICHLANDS*     CLOUDY    74  51  44 CALM      30.33F
WISE*          PTSUNNY   73  45  35 CALM      30.35F
ABINGDON*      SUNNY     81  49  33 E3        30.31F
$$

MDZ021>025-VAZ099-100-052000-
SOUTHERN MARYLAND AND THE DELMARVA PENINSULA

CITY           SKY/WX    TMP DP  RH WIND       PRES   REMARKS
PATUXENT RIVER MOSUNNY   74  60  61 SE12      30.22F
BAY BRIDGE APT   N/A    N/A N/A N/A SE7       30.23F
LEONARDTOWN    SUNNY     81  54  39 S3        30.24F
DOVER          MOSUNNY   79  64  61 E6        30.19F
GEORGETOWN     SUNNY     83  58  42 S13G20    30.22F
EASTON         MOSUNNY   82  59  44 SW7       30.26F
CAMBRIDGE      SUNNY     81  59  47 SE10      30.22F
SALISBURY      SUNNY     80  57  45 SW10      30.23F
OCEAN CITY     SUNNY     71  57  61 S8G17     30.23F
WALLOPS ISLAND MOSUNNY   76  61  59 S9        30.25F
ACCOMACK*      SUNNY     79  59  50 SW14G20   30.25F
$$

NCZ012>017-030>032-052000-
NORTH CENTRAL AND EASTERN NORTH CAROLINA

CITY           SKY/WX    TMP DP  RH WIND       PRES   REMARKS
ROANOKE RAPIDS FAIR      79  57  47 SW7       30.27F
RALEIGH        MOSUNNY   81  59  47 SW8       30.28F
ELIZABETH CITY SUNNY     80  52  37 SW14      30.29F
AHOSKIE*       SUNNY     80  54  41 S10       30.28F
EDENTON*       SUNNY     78  55  43 S10       30.29F
CURRITUCK*     SUNNY     80  47  30 S7        30.29F
KILL DEVIL HLS SUNNY     77  46  33 S12G20    30.29F
MANTEO         SUNNY     75  51  42 S16       30.32F
CAPE HATTERAS  SUNNY     73  56  54 S8        30.35F
TARBORO*       FAIR      82  53  37 S8        30.29F
GOLDSBORO      MOSUNNY   80  52  37 VRB2      30.27F
WASHINGTON     MOSUNNY   80  51  36 SE8       30.30F
GREENVILLE     MOSUNNY   81  54  39 SW9       30.30F
NEW BERN       MOSUNNY   81  48  31 SE10      30.32F
WILMINGTON     SUNNY     75  53  46 E10G16    30.33F
$$

VAZ048-052000-
ELSEWHERE

CITY           SKY/WX    TMP DP  RH WIND       PRES   REMARKS
HARRISBURG PA  CLOUDY    74  58  57 NW6       30.22F
BALTIMORE      PTSUNNY   83  56  39 CALM      30.20F
ANNAPOLIS      SUNNY     73  59  61 SE8       30.22F
ANDREWS AFB    SUNNY     85  58  39 VRB6      30.21F
PHILADELPHIA   MOSUNNY   84  55  36 SW12      30.19F
HENDERSON NC   SUNNY     80  54  39 SW8       30.27F
GREENSBORO     MOSUNNY   81  56  42 SW7       30.27F
ROCKY MOUNT    SUNNY     81  54  39 VRB7      30.29F
$$

VAZ100-052000-
MARINE

STATION/POSITION TIME  TEMP    WIND        PRES    WAVE   SWELL
                       AIR SEA DIR/SP/G            HT/PER HT/PER
                 (UTC) (F)     (DEG/KT/KT) (MB)    (FT/S) (FT/S)
BRANDYWINE LGT   1800   73 57  160/  6/  8 1023.8F
CAPE MAY NJ      1800   76 60  250/  3/  4 1023.5F
LEWES DE         1800   76 56   90/  6/  7 1023.5F
15NM E FENWICK I 1850   58 54              1023.7F   3/ 4
OCEAN-CITY-INLET 1800   59 56  200/ 12/ 16 1024.0F
WACHAPREAGUE VA  1800   78 70  220/ 11/ 16 1024.6F
THOMAS POINT MD  1900   74 60  160/  8/  9 1023.8F
GOOSES REEF MD   1900   67 63                N/A     1
COVE POINT MD    1800   65     180/ 10/ 10 1025.0F
SOLOMONS ISLAND  1800      62                N/A
BISHOPS HEAD MD  1800   67 71  150/  7/  8 1024.3F
PINEY POINT MD   1800          120/  5/  6   N/A
CAMBRIDGE MD     1800   73 63  340/  7/  7 1023.8F
LEWISETTA VA     1800   68 62              1023.9F
RAPPAHANNOCK LGT 1800          180/ 14/ 15 1025.2F
YORK RVR RNG VA  1800   72     210/ 15/ 16 1024.0F
YORKTOWN VA      1800   78 62  210/ 12/ 18 1024.2F
JAMESTOWN VA     1900   78 67  230/  8/ 12 1023.2F
DOMINION TERM VA 1800   73     220/ 12/ 14 1025.2F
KIPTOPEKE VA     1800      65  220/  6/  7   N/A
CHES BAY BRIDGE  1800   76 62  200/ 14/ 15 1024.7F
CAPE HENRY VA    1800   79     200/  9/ 14 1024.0F
CHESAPEAKE LGHT  1800   67     190/ 22/ 23 1025.7F
WILLOUBY STN VA  1800   75     250/ 10/ 11 1025.7F
S CRANEY ISL VA  1800          230/  8/ 13 1025.1F
CAPE HENRY BUOY  1828      61                N/A     2/11   2/11
1ST LANDING BUOY 1900      63                N/A     1/ 3
CAPE CHARLES BUO 1826      60                N/A     2/11   2/11
OFFSHORE WE BUOY 1811      54                N/A     2/ 9   2/ 9
64NM E OF VA BCH 1850   63 59  200/ 10/ 10 1026.2F   2/11   2/11
DUCK PIER NC     1800   74 55  170/ 11/ 14 1025.5F
44056 DUCK FRF   1811      61                N/A     2/ 9
OREGON INLET NC  1800   71 69  190/ 10/ 12 1027.5F
HATTERAS NC      1800   74 66  160/  8/ 10 1027.5F
DIAMOND SHLS NC  1850   73 77  150/ 14/ 16 1027.8F   3/11   2/11
CAPE LOOKOUT NC  1900   71     140/  8/  9 1027.3F
$$


USA.gov is the U.S. government's official web portal to all federal, state and local government web resources and services.